Location: Saint Louis
(38.6272°N, 90.1978°W)
Time: 16:31:04
(UTC-06:00)

Tiangong 1 - Visible Passes

Search period start: 09 February 2016 00:00
Search period end: 19 February 2016 00:00
Orbit: 383 x 398 km, 42.8° (Epoch: 09 February)

Date Brightness Start Highest point End Pass type
(mag) Time Alt. Az. Time Alt. Az. Time Alt. Az.
09 Feb 2.5 19:06:00 10° W 19:08:59 34° SSW 19:09:49 29° S visible
10 Feb 1.6 18:08:18 10° WNW 18:11:31 60° SSW 18:14:42 10° SE visible
10 Feb 4.3 19:47:35 10° SW 19:47:54 10° SW 19:47:58 10° SW visible
11 Feb 3.8 18:48:14 10° W 18:50:33 18° SW 18:52:51 10° S visible
